www.pogodaiklimat.ru

Погода и климат >> Архив погоды >> Малайзия >> Penang


ПОГОДА в Penang

  • Прогноз погоды в Penang
  • Монитор погоды в Penang
  • Климат города

АРХИВ ПОГОДЫ в Penang

Время (UTC), дата Ветер
(напр.,м/с)
 
Видим.   Явления Облачность Т
(С)
Тd
(С)
f
(%)
Тe
(С)
Тes
(С)
Комфортность P
(гПа)
Po
(гПа)
Тmin
(С)
Tmax
(С)
R
(мм)
R24
(мм)
S
(см)
00 7.12 С 2 9000 м мгла 9/5 500 м
[Cb cap Ac trans Ci fib]
+25.4 +24.2 93 +35 +35 очень
душно
1009.2 1008.8 +24.7 3
03 7.12 СВ 2 9000 м мгла 9/3 600 м
[Cu Sc Ac lent Ci sp]
+29.3 +25.7 81 +43 +48 опасность
перегрева
1010.3 1009.9
06 7.12 ЮЗ 4 10 км мгла 9/4 600 м
[Cu Sc Ac trans Ci fib]
+30.3 +25.6 76 +45 +48 опасность
перегрева
1008.4 1008.0
09 7.12 В 5 5000 м ливневой дождь 9/6 300 м
[Cb cap Ac lent Ci sp]
+28.8 +25.4 82 +42 +43 опасность
перегрева
1006.5 1006.1
12 7.12 СВ 2 8000 м в посл. час дождь {ливн. осадки} 9/5 360 м
[Cb cap Ac und Cs]
+25.9 +24.6 93 +37 +37 очень
душно
1008.3 1007.9 +32.3 5
15 7.12 СВ 2 8000 м мгла {дождь} 9/3 750 м
[Sc Ac trans Ci sp]
+25.6 +24.4 93 +36 +36 очень
душно
1010.1 1009.7
18 7.12 З 2 8000 м дымка 9/3 750 м
[Sc Ac trans Ci sp]
+25.7 +24.4 93 +36 +36 очень
душно
1009.7 1009.3 0.2
21 7.12 штиль 0 8000 м дымка 9/3 750 м
[Sc Ac trans Ci sp]
+25.1 +24.1 94 +35 +35 очень
душно
1007.7 1007.3
00 8.12 штиль 0 9000 м мгла 9/3 600 м
[Cu med, cong Ac lent Ci fib]
+25.1 +23.9 93 +34 +35 очень
душно
1009.4 1009.0 +24.3 5
03 8.12 В 1 10 км мгла 8/1 600 м
[Cu hum Ac trans Ci fib]
+30.1 +23.8 69 +41 +49 опасность
перегрева
1010.7 1010.3
06 8.12 ЮЗ 4 10 км слабая морось 9/3 600 м
[Cu med, cong Ac lent Ci sp]
+31.5 +25.4 70 +46 +50 опасность
перегрева
1009.1 1008.7
09 8.12 ЮЗ 4 10 км гроза без осадков 9/3 500 м
[Cb cap Ac trans Ci fib]
+30.4 +25.4 75 +45 +46 опасность
перегрева
1006.5 1006.1
12 8.12 ЮЗ 2 10 км зарница {гроза} 9/3 500 м
[Cb cap Ac lent Cs]
+28.8 +25.1 80 +42 +42 опасность
перегрева
1009.0 1008.6 +31.6
15 8.12 штиль 0 9000 м зарница {дождь} 9/4 500 м
[Cb cap Ac trans Ci sp]
+27.9 +25.1 85 +40 +40 очень
душно
1010.7 1010.3
18 8.12 СВ 3 8000 м гроза, ливневой дождь 9/5 360 м
[Cb cap Ac lent Cs]
+25.9 +24.3 91 +36 +36 очень
душно
1010.3 1009.9 0.2
21 8.12 С 1 8000 м гроза без осадков {дождь} 9/4 500 м
[Cb cap Ac trans Ci sp]
+24.9 +24.2 96 +34 +34 очень
душно
1008.7 1008.3
00 9.12 С 1 7000 м в посл. час дождь {гроза} 9/5 300 м
[Cu Sc Ac lent Cs]
+25.4 +24.0 92 +35 +35 очень
душно
1010.3 1009.9 +24.9 3
03 9.12 ЮВ 2 8000 м мгла 9/4 600 м
[Cu Sc Ac und Ci sp]
+29.2 +25.4 80 +43 +47 опасность
перегрева
1011.3 1010.9
06 9.12 ЮЗ 3 8000 м мгла 9/3 600 м
[Cu Sc Ac lent Ci sp]
+31.5 +25.5 71 +46 +52 опасность
перегрева
1008.5 1008.1
09 9.12 З 1 6000 м гроза, ливневой дождь 10/5 500 м
[Cb cap Ac lent Cs]
+28.1 +25.6 86 +41 +43 опасность
перегрева
1006.5 1006.1
12 9.12 С 1 8000 м в посл. час гроза {дождь} 9/4 500 м
[Cb cap Ac lent Cs]
+27.2 +25.7 92 +40 +40 очень
душно
1008.4 1008.0 +32.3 1
15 9.12 ЮЗ 1 8000 м мгла {дождь} 9/3 750 м
[Sc Ac lent Ci sp]
+26.9 +25.8 94 +40 +40 очень
душно
1010.0 1009.6
18 9.12 С 1 8000 м мгла 9/4 750 м
[Sc Ac lent Ci sp]
+26.6 +25.2 92 +38 +38 очень
душно
1009.0 1008.6 0.0
21 9.12 СВ 2 7000 м в посл. час гроза 9/3 750 м
[Sc Ac lent Ci sp]
+25.5 +24.6 95 +36 +36 очень
душно
1007.6 1007.2
00 10.12 С 1 10 км гроза без осадков 9/4 500 м
[Cb cap Ac trans Ci sp]
+25.9 +24.5 92 +36 +36 очень
душно
1009.4 1009.0 +25.4 1
03 10.12 ЮЗ 5 9000 м мгла 9/4 600 м
[Cu Sc Ac trans Ci fib]
+29.3 +25.9 82 +44 +46 опасность
перегрева
1010.9 1010.5
06 10.12 ЮЗ 4 9000 м мгла {гроза} 9/3 500 м
[Cb cap Ac lent Ci sp]
+30.5 +24.4 70 +43 +48 опасность
перегрева
1009.1 1008.7
09 10.12 СЗ 2 6000 м слабый ливневой дождь, в посл. час гроза 10/5 500 м
[Cb cap Ac lent Cs]
+28.5 +25.4 83 +42 +43 опасность
перегрева
1007.4 1007.0
12 10.12 СВ 2 9000 м слабый дождь {гроза} 9/4 750 м
[Sc Ac lent Ci sp]
+26.9 +25.6 93 +40 +40 очень
душно
1009.5 1009.1 +31.2 1
15 10.12 СВ 3 9000 м зарница {дождь} 9/4 500 м
[Cb cap Ac trans Ci sp]
+26.0 +24.3 90 +36 +36 очень
душно
1011.1 1010.7
18 10.12 штиль 0 8000 м мгла {дождь} 9/3 750 м
[Sc Ac lent Ci sp]
+25.8 +23.8 89 +35 +35 очень
душно
1010.2 1009.8 0.0
21 10.12 С 3 9000 м мгла 9/3 750 м
[Sc Ac trans Ci sp]
+26.1 +22.9 83 +35 +35 очень
душно
1008.6 1008.2
00 11.12 штиль 0 9000 м мгла 9/3 600 м
[Cu Sc Ac lent Ci sp]
+25.8 +24.1 90 +36 +36 очень
душно
1009.9 1009.5 +25.4 1
03 11.12 В 4 10 км мгла 9/3 600 м
[Cu hum Ac lent Ci sp]
+28.5 +23.9 76 +39 +42 очень
душно
1011.5 1011.1
06 11.12 ЮВ 2 8000 м мгла 9/3 600 м
[Cu med, cong Ac und Ci sp]
+30.2 +25.3 75 +44 +51 опасность
перегрева
1009.5 1009.1
09 11.12 ЮЗ 3 10 км мгла 9/4 600 м
[Cu Sc Ac lent Ci sp]
+29.3 +25.1 78 +42 +44 опасность
перегрева
1007.2 1006.8
12 11.12 З 2 8000 м мгла 9/3 750 м
[Sc Ac lent Ci sp]
+28.3 +25.6 85 +42 +42 опасность
перегрева
1009.4 1009.0 +30.6
15 11.12 З 1 8000 м зарница 9/4 500 м
[Cb cap Ac lent Ci sp]
+27.8 +25.6 88 +41 +41 опасность
перегрева
1010.8 1010.4
18 11.12 штиль 0 8000 м слабый дождь 9/6 360 м
[Cb cap Ac trans Cs]
+26.5 +25.7 95 +39 +39 очень
душно
1010.2 1009.8 5
21 11.12 ЮЗ 2 8000 м гроза без осадков {дождь} 10/5 500 м
[Cb cap Ac lent Cs]
+26.0 +25.2 95 +37 +37 очень
душно
1009.0 1008.6
00 12.12 С 3 6000 м слабый ливневой дождь, в посл. час гроза 10/8 300 м
[Cu Sc Ac trans Cs]
+24.1 +23.6 97 +33 +33 очень
душно
1011.1 1010.7 +24.1 29
03 12.12 С 2 10 км в посл. час дождь 9/5 360 м
[Cu Sc Ac trans Ci sp]
+27.1 +24.8 87 +39 +42 очень
душно
1012.4 1012.0
06 12.12 ЮВ 2 9000 м мгла {дождь} 9/5 600 м
[Cu Sc Ac lent Ci sp]
+30.5 +24.7 71 +43 +48 опасность
перегрева
1010.0 1009.6 0.2
09 12.12 С 3 7000 м слабый ливневой дождь, в посл. час гроза 9/6 300 м
[Cu Sc Ac trans Cs]
+26.7 +24.2 86 +37 +38 очень
душно
1008.6 1008.2
12 12.12 С 2 8000 м в посл. час дождь {гроза} 9/3 300 м
[Sc Ac lent Cs]
+26.3 +24.6 90 +37 +37 очень
душно
1009.6 1009.2 +31.9 0.4
15 12.12 С 1 8000 м мгла 9/3 750 м
[Sc Ac lent Ci sp]
+25.8 +24.2 91 +36 +36 очень
душно
1010.5 1010.1
18 12.12 штиль 0 8000 м мгла 9/3 750 м
[Sc Ac lent Ci sp]
+25.8 +24.6 93 +36 +36 очень
душно
1010.5 1010.1
21 12.12 С 1 8000 м гроза без осадков 9/4 500 м
[Cb cap Ac lent Ci sp]
+25.7 +24.3 92 +36 +36 очень
душно
1009.5 1009.1
00 13.12 С 1 8000 м мгла {гроза} 9/5 600 м
[Cu Sc Ac lent Ci sp]
+25.9 +23.8 88 +35 +36 очень
душно
1010.9 1010.5 +24.1 3
03 13.12 С 2 8000 м мгла 9/3 600 м
[Cu med, cong Ac und Ci sp]
+30.1 +24.4 72 +42 +47 опасность
перегрева
1012.3 1011.9
06 13.12 ЮЗ 3 8000 м мгла 9/4 600 м
[Cu Sc Ac und Ci sp]
+31.1 +25.2 71 +45 +50 опасность
перегрева
1010.6 1010.2
09 13.12 ЮЗ 5 7000 м слабый дождь 9/5 300 м
[Cb cap Ac trans Ci sp]
+30.4 +25.7 76 +45 +46 опасность
перегрева
1008.5 1008.1
12 13.12 СВ 2 8000 м в посл. час гроза {дождь} 10/4 600 м
[Cu Sc Ac lent Cs]
+25.1 +23.8 93 +34 +34 очень
душно
1010.3 1009.9 +31.8 9
15 13.12 штиль 0 9000 м мгла 9/3 750 м
[Sc Ac trans Ci sp]
+25.8 +24.8 94 +37 +37 очень
душно
1011.9 1011.5
18 13.12 СВ 2 9000 м мгла 9/3 750 м
[Sc Ac lent Ci sp]
+26.3 +23.0 82 +35 +35 очень
душно
1011.0 1010.6

 

Местоположение метеостанции Penang (Малайзия): широта 5.30 долгота 100.26 высота над уровнем моря 4 м.

В архиве по умолчанию представлена погода в Penang за последнюю неделю. Архивные данные за месяц целиком и за предыдущие месяцы, начиная с января 2011 года, Вы можете получить, выбрав интересующий диапазон дат из раскрывающегося списка и нажав кнопку "Ввод!".


*Определитесь, кто Вы:
робот инопланетянин человек

Внимание! Время в таблицах - всемирное. Для получения местного времени необходимо прибавить поправку, которая в Penang равна 7 ч.

Смотрите также архив погоды в соседних городах и на ближайших метеорологических станциях:

Погода в Butterworth Air Base (Малайзия) (23 км)
Погода в Alor Star (Малайзия) (101 км)
Погода в Ipoh (Малайзия) (124 км)
Погода в Langkawi (Малайзия) (129 км)
Погода в Sitiawan (Малайзия) (130 км)
Погода в Satun (Таиланд) (151 км)
Погода в Kho Hong Agromet (Таиланд) (151 км)
Погода в Cameron Highlands (Малайзия) (154 км)
Погода в Sadao (Таиланд) (168 км)
Погода в Yala Agromet (Таиланд) (176 км)

Пояснения к столбцам:

Ветер - указаны скорость ветра в м/с - средняя за 10 мин, порывы в срок и между сроками (в фигурных скобках) и направление, откуда дует ветер: С - северный, СВ - северо-восточный, В - восточный, ЮВ - юго-восточный, Ю - южный, ЮЗ - юго-западный, З - западный, СЗ - северо-западный.
Видимость - горизонтальная дальность видимости в метрах или километрах. При видимости от 1 до 10 км при отсутствии осадков обычно наблюдается дымка, при ухудшении видимости до 1 км и менее - туман. В сухую погоду видимость может ухудшаться дымом, пылью или мглою.
Явления - указаны атмосферные явления, наблюдавшиеся в срок или в последний час перед сроком; фигурными скобками обозначены явления, наблюдавшиеся между сроками (за 1-3 часа до срока); квадратными скобками обозначены град или гололедные отложения с указанием их диаметра в мм.
Облачность - указаны через наклонную черту общая и нижняя облачность в баллах и высота нижней границы облаков в метрах; квадратными скобками обозначены формы облаков: Ci - перистые, Cs - перисто-слоистые, Cc - перисто-кучевые, Ac - высококучевые, As - высокослоистые, Sc - слоисто-кучевые, Ns - слоисто-дождевые, Cu - кучевые, Cb - кучево-дождевые. Подробнее классификацию облаков см. в Атласе облаков (PDF).
T - Температура воздуха - температура, измеренная на высоте 2 м над землей.
Td - Температура точки росы - температура, при понижении до которой содержащийся в воздухе водяной пар достигнет насыщения.
f - Относительная влажность воздуха - влажноcть воздуха, измеренная на высоте 2 м над землей.
Te - Эффективная температура - температура, которую ощущает одетый по сезону человек в тени. Характеристика душности погоды. При расчете учитывается влияние влажности воздуха и скорости ветра на теплоощущения человека.
Tes - Эффективная температура на солнце - температура, которую ощущает человек, с поправкой на солнечный нагрев. Характеристика знойности погоды. Зависит от высоты солнца над горизонтом, облачности и скорости ветра. Ночью, в пасмурную погоду, а также при ветре 12 м/с и более поправка равна нулю.
P - Атмосферное давление - приведенное к уровню моря атмосферное давление.
Po - Атмосферное давление - измеренное на уровне метеостанции атмосферное давление.
Tmin - Минимальная температура - минимум температуры воздуха на высоте 2 м над землей.
Tmax - Максимальная температура - максимум температуры воздуха на высоте 2 м над землей.
R - Количество осадков - Количество выпавших осадков за период времени, мм. При наведении курсора мыши на число - период времени, за который выпало указанное количество осадков.
R24 - Количество осадков - Количество выпавших осадков за 24 часа, мм.
S - Снежный покров - Высота снежного покрова, см. При наведении курсора мыши на число - состояние снежного покрова и степень покрытия местности в баллах.